RSC766 GCTS-GCLA

Flight info

Callsign RSC766
Flight time 0h 28m
Altitude 10000
Route MOROD
Aircraft AT76/M-SDFGRY/LB1

Departure

Time 2026-05-04 16:53
Airport Tenerife Sur Airport (GCTS)

Arrival

Time 2026-05-04 17:21
Airport La Palma Airport (GCLA)
Time Latitude Longitude Altitude Speed Heading
2026-05-04 16:15 28.04574 -16.57620 219 ft 0 kts 338°
2026-05-04 16:16 28.04574 -16.57621 219 ft 0 kts 338°
2026-05-04 16:18 28.04574 -16.57620 219 ft 0 kts 338°
2026-05-04 16:46 28.04580 -16.57623 247 ft 0 kts 338°
2026-05-04 16:47 28.04624 -16.57667 221 ft 9 kts 266°
2026-05-04 16:47 28.04529 -16.57682 219 ft 7 kts 158°
2026-05-04 16:48 28.04423 -16.57844 219 ft 17 kts 249°
2026-05-04 16:48 28.04376 -16.57977 219 ft 19 kts 249°
2026-05-04 16:49 28.04273 -16.58274 219 ft 21 kts 247°
2026-05-04 16:49 28.04177 -16.58579 219 ft 13 kts 246°
2026-05-04 16:50 28.04084 -16.58792 206 ft 10 kts 198°
2026-05-04 16:50 28.04024 -16.58772 202 ft 0 kts 139°
2026-05-04 16:51 28.04022 -16.58770 212 ft 3 kts 138°
2026-05-04 16:51 28.03987 -16.58634 200 ft 6 kts 137°
2026-05-04 16:52 28.03982 -16.58584 197 ft 15 kts 71°
2026-05-04 16:52 28.04111 -16.58215 194 ft 84 kts 68°
2026-05-04 16:53 28.04689 -16.56609 845 ft 124 kts 72°
2026-05-04 16:53 28.05550 -16.53817 2394 ft 131 kts 68°
2026-05-04 16:54 28.05899 -16.52789 2702 ft 148 kts 64°
2026-05-04 16:55 28.07801 -16.47789 4035 ft 182 kts 68°
2026-05-04 16:55 28.06935 -16.45339 4773 ft 190 kts 158°
2026-05-04 16:56 28.04460 -16.44333 5405 ft 191 kts 169°
2026-05-04 16:56 28.00576 -16.43182 6310 ft 194 kts 162°
2026-05-04 16:57 27.99282 -16.43131 6573 ft 191 kts 204°
2026-05-04 16:57 27.97843 -16.45449 7238 ft 184 kts 253°
2026-05-04 16:58 27.96859 -16.49653 8261 ft 185 kts 257°
2026-05-04 16:58 27.96530 -16.51060 8612 ft 184 kts 257°
2026-05-04 16:59 27.95853 -16.53864 9279 ft 185 kts 256°
2026-05-04 17:00 27.94434 -16.59677 10017 ft 211 kts 256°
2026-05-04 17:00 27.94325 -16.64640 10048 ft 229 kts 301°
2026-05-04 17:01 27.96242 -16.67645 10048 ft 240 kts 304°
2026-05-04 17:01 27.98222 -16.70735 10047 ft 244 kts 303°
2026-05-04 17:02 28.00152 -16.73886 10046 ft 245 kts 303°
2026-05-04 17:02 28.02093 -16.77068 10053 ft 246 kts 302°
2026-05-04 17:03 28.03067 -16.78667 10049 ft 246 kts 303°
2026-05-04 17:03 28.04039 -16.80260 10053 ft 246 kts 303°
2026-05-04 17:03 28.05981 -16.83457 10055 ft 246 kts 303°
2026-05-04 17:04 28.07910 -16.86637 10054 ft 246 kts 303°
2026-05-04 17:04 28.09856 -16.89838 10057 ft 246 kts 303°
2026-05-04 17:05 28.11801 -16.93043 10060 ft 246 kts 303°
2026-05-04 17:05 28.13746 -16.96251 10060 ft 247 kts 303°
2026-05-04 17:06 28.15689 -16.99459 10060 ft 247 kts 302°
2026-05-04 17:06 28.16665 -17.01063 10062 ft 248 kts 302°
2026-05-04 17:07 28.18603 -17.04265 10065 ft 248 kts 303°
2026-05-04 17:07 28.19264 -17.05354 10065 ft 248 kts 302°
2026-05-04 17:07 28.20549 -17.07489 10065 ft 248 kts 302°
2026-05-04 17:07 28.21511 -17.09108 10066 ft 248 kts 302°
2026-05-04 17:08 28.22472 -17.10731 10067 ft 248 kts 302°
2026-05-04 17:08 28.24409 -17.13973 10069 ft 248 kts 302°
2026-05-04 17:08 28.25382 -17.15586 10066 ft 248 kts 302°
2026-05-04 17:09 28.26345 -17.17181 10070 ft 248 kts 302°
2026-05-04 17:09 28.27318 -17.18794 10070 ft 248 kts 302°
2026-05-04 17:09 28.28294 -17.20411 10068 ft 248 kts 302°
2026-05-04 17:10 28.30246 -17.23650 10070 ft 248 kts 302°
2026-05-04 17:10 28.33172 -17.28508 10066 ft 249 kts 302°
2026-05-04 17:11 28.34147 -17.30129 10064 ft 249 kts 302°
2026-05-04 17:11 28.35123 -17.31750 10066 ft 249 kts 302°
2026-05-04 17:11 28.37062 -17.34979 10065 ft 249 kts 302°
2026-05-04 17:12 28.38037 -17.36602 10065 ft 249 kts 302°
2026-05-04 17:12 28.40087 -17.40019 9191 ft 275 kts 303°
2026-05-04 17:13 28.43064 -17.45137 8234 ft 242 kts 291°
2026-05-04 17:14 28.43232 -17.50664 7228 ft 232 kts 267°
2026-05-04 17:14 28.43153 -17.52511 6901 ft 234 kts 268°
2026-05-04 17:14 28.43082 -17.56224 6284 ft 238 kts 269°
2026-05-04 17:15 28.43060 -17.58108 5967 ft 239 kts 270°
2026-05-04 17:15 28.43000 -17.61891 5357 ft 239 kts 270°
2026-05-04 17:16 28.42961 -17.65653 4754 ft 239 kts 270°
2026-05-04 17:16 28.42883 -17.71318 3842 ft 238 kts 270°
2026-05-04 17:17 28.43007 -17.73159 3528 ft 232 kts 290°
2026-05-04 17:17 28.47031 -17.75397 2578 ft 230 kts 358°
2026-05-04 17:18 28.48613 -17.75417 2471 ft 223 kts
2026-05-04 17:18 28.51641 -17.75403 2126 ft 218 kts
2026-05-04 17:19 28.54514 -17.75401 1543 ft 188 kts
2026-05-04 17:19 28.56895 -17.75430 1075 ft 152 kts
2026-05-04 17:20 28.58788 -17.75477 696 ft 124 kts
2026-05-04 17:20 28.60400 -17.75524 393 ft 114 kts
2026-05-04 17:20 28.61185 -17.75531 264 ft 112 kts 359°
2026-05-04 17:21 28.62632 -17.75556 104 ft 52 kts 358°
2026-05-04 17:21 28.63081 -17.75558 89 ft 16 kts 356°
2026-05-04 17:22 28.63241 -17.75571 84 ft 30 kts 359°
2026-05-04 17:22 28.63440 -17.75576 77 ft 30 kts 359°
2026-05-04 17:23 28.63554 -17.75576 72 ft 13 kts 167°
2026-05-04 17:23 28.63441 -17.75577 77 ft 19 kts 177°
2026-05-04 17:23 28.63152 -17.75568 88 ft 18 kts 180°
2026-05-04 17:24 28.63040 -17.75564 92 ft 14 kts 178°
2026-05-04 17:24 28.62677 -17.75552 102 ft 13 kts 162°
2026-05-04 17:25 28.62625 -17.75499 105 ft 9 kts 139°
2026-05-04 17:25 28.62601 -17.75477 106 ft 2 kts 139°
2026-05-04 17:26 28.62550 -17.75449 107 ft 7 kts 175°
2026-05-04 17:26 28.62373 -17.75445 110 ft 10 kts 179°
2026-05-04 17:27 28.62202 -17.75442 111 ft 14 kts 179°
2026-05-04 17:27 28.62122 -17.75385 111 ft 8 kts 88°
2026-05-04 17:28 28.62123 -17.75346 111 ft 0 kts 90°